Bellingham, WA
on Friday, November 30, 2012

Friday
Previous Day Next Day
Daily Summary
 ActualAverageRecord
Temperature
Mean Temperature °F 40°F  
Max Temperature 57°F 46°F 58°F (1958)
Min Temperature 50°F 34°F 18°F (1952)
Degree Days
Heating Degree Days 12 25  
Month to date heating degree days 653  
Cooling Degree Days 0 0  
Month to date cooling degree days 0  
Year to date cooling degree days 42  
Growing Degree Days4 (Base °F )  
Moisture
Dew Point 44°F   
Average Humidity 69    
Maximum Humidity 80    
Minimum Humidity 53    
Precipitation
Precipitation 0.01 in 0.19 in 1.26 in (1999)
Month to date precipitation 5.80  
Year to date precipitation 31.61  
Wind
Wind Speed 15 mph   
Max Wind Speed 23 mph   
Max Gust Speed 34 mph   
Visibility 10 miles   
Events Rain   

Key: T is trace of precipitation, MM is missing value
Source: NWS Daily Summary
Time(PST)TemperatureDew PointHumidity Pressure Visibility Wind DirectionWind SpeedGust SpeedPrecipitationEvents Conditions
12:53 AM 50.0°F 41.0°F 71% 29.42 in 10.0 miles North 4.6 mph - N/A   Overcast
1:53 AM 57.0°F 39.9°F 53% 29.40 in 10.0 miles SE 11.5 mph 18.4 mph N/A   Overcast
2:53 AM 54.0°F 42.1°F 64% 29.40 in 10.0 miles SE 21.9 mph 28.8 mph 0.00 in Rain Light Rain
3:53 AM 52.0°F 41.0°F 66% 29.37 in 10.0 miles ESE 17.3 mph 26.5 mph 0.00 in   Overcast
4:53 AM 54.0°F 41.0°F 62% 29.37 in 10.0 miles ESE 11.5 mph 21.9 mph N/A   Overcast
5:53 AM 55.9°F 41.0°F 57% 29.35 in 10.0 miles SE 16.1 mph 28.8 mph N/A   Overcast
6:53 AM 55.9°F 42.1°F 60% 29.33 in 10.0 miles SE 19.6 mph 28.8 mph N/A   Clear
7:53 AM 57.0°F 41.0°F 55% 29.34 in 10.0 miles SE 17.3 mph 25.3 mph N/A   Overcast
8:53 AM 54.0°F 45.0°F 72% 29.37 in 10.0 miles SSE 15.0 mph 24.2 mph 0.00 in Rain Light Rain
9:53 AM 55.0°F 44.1°F 67% 29.37 in 10.0 miles SE 19.6 mph 34.5 mph 0.00 in   Mostly Cloudy
10:53 AM 55.9°F 44.1°F 64% 29.39 in 10.0 miles SSE 20.7 mph 31.1 mph N/A   Overcast
11:53 AM 54.0°F 44.1°F 69% 29.39 in 10.0 miles SSE 20.7 mph 34.5 mph 0.00 in Rain Light Rain
12:53 PM 53.1°F 45.0°F 74% 29.39 in 9.0 miles SSE 18.4 mph 28.8 mph 0.00 in Rain Light Rain
1:53 PM 55.0°F 45.0°F 69% 29.39 in 10.0 miles SSE 17.3 mph 29.9 mph 0.00 in Rain Light Rain
2:53 PM 54.0°F 46.0°F 75% 29.40 in 9.0 miles SSE 13.8 mph 28.8 mph 0.00 in Rain Light Rain
3:07 PM 53.6°F 46.4°F 77% 29.38 in 10.0 miles SSE 18.4 mph 27.6 mph 0.00 in   Overcast
3:33 PM 53.6°F 46.4°F 77% 29.39 in 10.0 miles South 12.7 mph 26.5 mph 0.00 in   Overcast
3:53 PM 53.1°F 46.0°F 77% 29.41 in 10.0 miles SSE 15.0 mph 23.0 mph 0.00 in   Mostly Cloudy
4:53 PM 54.0°F 44.1°F 69% 29.41 in 10.0 miles SSE 16.1 mph 33.4 mph N/A   Overcast
5:53 PM 53.1°F 46.0°F 77% 29.40 in 10.0 miles SE 23.0 mph 32.2 mph 0.00 in Rain Light Rain
6:53 PM 52.0°F 46.0°F 80% 29.41 in 9.0 miles SE 17.3 mph 32.2 mph 0.01 in Rain Light Rain
7:53 PM 52.0°F 44.1°F 74% 29.40 in 10.0 miles SE 20.7 mph 29.9 mph 0.00 in Rain Light Rain
8:53 PM 52.0°F 43.0°F 71% 29.39 in 10.0 miles SE 16.1 mph 32.2 mph 0.00 in   Overcast
9:53 PM 51.1°F 44.1°F 77% 29.38 in 10.0 miles SE 23.0 mph 29.9 mph 0.00 in Rain Light Rain
10:53 PM 51.1°F 42.1°F 71% 29.37 in 10.0 miles SE 16.1 mph 25.3 mph 0.00 in   Overcast
11:53 PM 53.1°F 42.1°F 66% 29.37 in 10.0 miles SE 20.7 mph 31.1 mph N/A   Overcast
Moon Phase
Nov. 30 Dec. 06 Dec. 13 Dec. 20 Dec. 28
Sunrise:07:41 AM (PST) Moon Rise:06:17 PM (PST)11/30
Sunset:04:16 PM (PST) Moon Set:09:16 AM (PST)11/30

Copyright © 2014 The Weather Underground, Inc.